Location: Lake of the Woods (North-East)
(49.6672°N, 94.8656°W)
Time: 07:00:40
(UTC-05:00)

ISS - All Passes

Search period start: 24 October 2014 00:00
Search period end: 02 November 2014 23:00
Orbit: 413 x 416 km, 51.6° (Epoch: 24 October)

Date Brightness Start Highest point End Pass type
(mag) Time Alt. Az. Time Alt. Az. Time Alt. Az.
24 Oct - 13:46:27 10° SSW 13:49:12 24° SE 13:51:57 10° E daylight
24 Oct - 15:22:15 10° WSW 15:25:36 90° SSE 15:28:58 10° ENE daylight
24 Oct - 16:59:08 10° W 17:02:27 59° N 17:05:46 10° E daylight
24 Oct - 18:35:55 10° WNW 18:39:15 73° SSW 18:42:35 10° ESE visible
24 Oct - 20:13:12 10° W 20:15:32 18° SW 20:17:51 10° S visible
25 Oct - 12:58:05 10° S 13:00:12 16° SE 13:02:20 10° E daylight
25 Oct - 14:33:07 10° WSW 14:36:26 68° SSE 14:39:46 10° ENE daylight
25 Oct - 16:09:54 10° W 16:13:13 60° N 16:16:32 10° ENE daylight
25 Oct - 17:46:43 10° WNW 17:50:04 85° NNE 17:53:25 10° ESE daylight
25 Oct - 19:23:39 10° W 19:26:31 26° SW 19:29:22 10° SSE visible
26 Oct - 12:10:59 10° SE 12:11:14 10° SE 12:11:29 10° SE daylight
26 Oct - 13:44:03 10° SW 13:47:16 47° SSE 13:50:30 10° ENE daylight
26 Oct - 15:20:36 10° W 15:23:55 65° N 15:27:15 10° ENE daylight
26 Oct - 16:57:28 10° WNW 17:00:49 70° NNE 17:04:09 10° E daylight
26 Oct - 18:34:16 10° W 18:37:25 39° SSW 18:40:33 10° SE visible
27 Oct - 12:55:06 10° SSW 12:58:06 32° SSE 13:01:07 10° E daylight
27 Oct - 14:31:17 10° W 14:34:37 77° NNW 14:37:58 10° ENE daylight
27 Oct - 16:08:11 10° WNW 16:11:30 62° N 16:14:49 10° E daylight
27 Oct - 17:44:55 10° WNW 17:48:13 57° SSW 17:51:30 10° SE daylight
27 Oct - 19:22:46 10° WSW 19:24:21 13° SW 19:25:56 10° SSW visible
28 Oct - 12:06:20 10° SSW 12:08:57 22° SE 12:11:34 10° E daylight
28 Oct - 13:41:58 10° WSW 13:45:18 84° SSE 13:48:39 10° ENE daylight
28 Oct - 15:18:49 10° W 15:22:08 59° N 15:25:26 10° E daylight
28 Oct - 16:55:35 10° WNW 16:58:56 79° SSW 17:02:16 10° ESE daylight
28 Oct - 18:32:45 10° W 18:35:15 20° SW 18:37:44 10° S visible
29 Oct - 11:17:58 10° S 11:19:49 14° SE 11:21:40 10° ESE daylight
29 Oct - 12:52:41 10° WSW 12:55:59 62° SSE 12:59:17 10° ENE daylight
29 Oct - 14:29:24 10° W 14:32:43 61° N 14:36:02 10° ENE daylight
29 Oct - 16:06:14 10° WNW 16:09:35 81° NNE 16:12:55 10° ESE daylight
29 Oct - 17:43:07 10° W 17:46:04 29° SW 17:49:00 10° SSE daylight
30 Oct - 12:03:30 10° SW 12:06:40 42° SSE 12:09:51 10° ENE daylight
30 Oct - 13:39:57 10° W 13:43:17 68° N 13:46:37 10° ENE daylight
30 Oct - 15:16:50 10° WNW 15:20:09 67° N 15:23:29 10° E daylight
30 Oct - 16:53:35 10° WNW 16:56:47 43° SSW 16:59:57 10° SE daylight
31 Oct - 11:14:26 10° SSW 11:17:21 29° SE 11:20:17 10° E daylight
31 Oct - 12:50:29 10° WSW 12:53:49 81° NNW 12:57:10 10° ENE daylight
31 Oct - 14:27:22 10° WNW 14:30:40 60° N 14:33:59 10° E daylight
31 Oct - 16:04:06 10° WNW 16:07:24 63° SSW 16:10:42 10° ESE daylight
31 Oct - 17:41:40 10° WSW 17:43:35 15° SW 17:45:29 10° S daylight
01 Nov - 10:25:37 10° S 10:28:03 19° SE 10:30:31 10° E daylight
01 Nov - 12:01:01 10° WSW 12:04:21 78° SSE 12:07:41 10° ENE daylight
01 Nov - 13:37:50 10° W 13:41:08 59° N 13:44:27 10° E daylight
01 Nov - 15:14:37 10° WNW 15:17:57 85° SSW 15:21:17 10° ESE daylight
01 Nov - 16:51:40 10° W 16:54:18 22° SW 16:56:57 10° SSE daylight
02 Nov - 08:37:18 10° SSE 08:38:46 12° SE 08:40:15 10° ESE daylight
02 Nov - 10:11:37 10° SW 10:14:52 56° SSE 10:18:09 10° ENE daylight
02 Nov - 11:48:16 10° W 11:51:34 62° N 11:54:53 10° ENE daylight
02 Nov - 13:25:05 10° WNW 13:28:26 76° NNE 13:31:46 10° E daylight
02 Nov - 15:01:55 10° W 15:04:56 33° SSW 15:07:58 10° SSE daylight
